Year,Month,Day,Hour,Minute,Value (Times are PST for temperature in C)
2019,10,26,00,00,6.70
2019,10,26,00,01,6.60
2019,10,26,00,02,6.60
2019,10,26,00,03,6.50
2019,10,26,00,04,6.50
2019,10,26,00,05,6.50
2019,10,26,00,06,6.50
2019,10,26,00,07,6.50
2019,10,26,00,08,6.40
2019,10,26,00,09,6.40
2019,10,26,00,10,6.50
2019,10,26,00,11,6.50
2019,10,26,00,12,6.50
2019,10,26,00,13,6.60
2019,10,26,00,14,6.60
2019,10,26,00,15,6.60
2019,10,26,00,16,6.70
2019,10,26,00,17,6.80
2019,10,26,00,18,6.90
2019,10,26,00,19,7.00
2019,10,26,00,20,7.10
2019,10,26,00,21,7.20
2019,10,26,00,22,7.20
2019,10,26,00,23,7.30
2019,10,26,00,24,7.30
2019,10,26,00,25,7.40
2019,10,26,00,26,7.40
2019,10,26,00,27,7.50
2019,10,26,00,28,7.50
2019,10,26,00,29,7.50
2019,10,26,00,30,7.50
2019,10,26,00,31,7.60
2019,10,26,00,32,7.60
2019,10,26,00,33,7.60
2019,10,26,00,34,7.60
2019,10,26,00,35,7.60
2019,10,26,00,36,7.60
2019,10,26,00,37,7.60
2019,10,26,00,38,7.60
2019,10,26,00,39,7.50
2019,10,26,00,40,7.50
2019,10,26,00,41,7.50
2019,10,26,00,42,7.50
2019,10,26,00,43,7.50
2019,10,26,00,44,7.50
2019,10,26,00,45,7.50
2019,10,26,00,46,7.50
2019,10,26,00,47,7.50
2019,10,26,00,48,7.40
2019,10,26,00,49,7.40
2019,10,26,00,50,7.40
2019,10,26,00,51,7.30
2019,10,26,00,52,7.30
2019,10,26,00,53,7.20
2019,10,26,00,54,7.00
2019,10,26,00,55,6.90
2019,10,26,00,56,6.80
2019,10,26,00,57,6.70
2019,10,26,00,58,6.60
2019,10,26,00,59,6.50
2019,10,26,01,00,6.40
2019,10,26,01,01,6.40
2019,10,26,01,02,6.30
2019,10,26,01,03,6.20
2019,10,26,01,04,6.20
2019,10,26,01,05,6.20
2019,10,26,01,06,6.10
2019,10,26,01,07,6.10
2019,10,26,01,08,6.10
2019,10,26,01,09,6.00
2019,10,26,01,10,6.00
2019,10,26,01,11,5.90
2019,10,26,01,12,5.90
2019,10,26,01,13,5.80
2019,10,26,01,14,5.80
2019,10,26,01,15,5.80
2019,10,26,01,16,5.70
2019,10,26,01,17,5.70
2019,10,26,01,18,5.70
2019,10,26,01,19,5.60
2019,10,26,01,20,5.60
2019,10,26,01,21,5.60
2019,10,26,01,22,5.50
2019,10,26,01,23,5.50
2019,10,26,01,24,5.40
2019,10,26,01,25,5.40
2019,10,26,01,26,5.40
2019,10,26,01,27,5.40
2019,10,26,01,28,5.30
2019,10,26,01,29,5.30
2019,10,26,01,30,5.30
2019,10,26,01,31,5.30
2019,10,26,01,32,5.20
2019,10,26,01,33,5.20
2019,10,26,01,34,5.20
2019,10,26,01,35,5.20
2019,10,26,01,36,5.10
2019,10,26,01,37,5.10
2019,10,26,01,38,5.10
2019,10,26,01,39,5.00
2019,10,26,01,40,5.00
2019,10,26,01,41,5.00
2019,10,26,01,42,5.00
2019,10,26,01,43,4.90
2019,10,26,01,44,4.90
2019,10,26,01,45,4.90
2019,10,26,01,46,4.90
2019,10,26,01,47,4.90
2019,10,26,01,48,4.90
2019,10,26,01,49,4.90
2019,10,26,01,50,4.90
2019,10,26,01,51,4.90
2019,10,26,01,52,4.80
2019,10,26,01,53,4.80
2019,10,26,01,54,4.80
2019,10,26,01,55,4.80
2019,10,26,01,56,4.80
2019,10,26,01,57,4.80
2019,10,26,01,58,4.80
2019,10,26,01,59,4.80
2019,10,26,02,00,4.80
2019,10,26,02,01,4.80
2019,10,26,02,02,4.70
2019,10,26,02,03,4.70
2019,10,26,02,04,4.60
2019,10,26,02,05,4.60
2019,10,26,02,06,4.60
2019,10,26,02,07,4.60
2019,10,26,02,08,4.50
2019,10,26,02,09,4.50
2019,10,26,02,10,4.40
2019,10,26,02,11,4.40
2019,10,26,02,12,4.40
2019,10,26,02,13,4.30
2019,10,26,02,14,4.30
2019,10,26,02,15,4.30
2019,10,26,02,16,4.30
2019,10,26,02,17,4.20
2019,10,26,02,18,4.20
2019,10,26,02,19,4.20
2019,10,26,02,20,4.20
2019,10,26,02,21,4.20
2019,10,26,02,22,4.10
2019,10,26,02,23,4.10
2019,10,26,02,24,4.10
2019,10,26,02,25,4.00
2019,10,26,02,26,4.00
2019,10,26,02,27,3.90
2019,10,26,02,28,3.90
2019,10,26,02,29,3.90
2019,10,26,02,30,3.90
2019,10,26,02,31,3.90
2019,10,26,02,32,3.90
2019,10,26,02,33,3.90
2019,10,26,02,34,3.80
2019,10,26,02,35,3.80
2019,10,26,02,36,3.70
2019,10,26,02,37,3.70
2019,10,26,02,38,3.60
2019,10,26,02,39,3.70
2019,10,26,02,40,3.70
2019,10,26,02,41,3.70
2019,10,26,02,42,3.70
2019,10,26,02,43,3.70
2019,10,26,02,44,3.70
2019,10,26,02,45,3.70
2019,10,26,02,46,3.70
2019,10,26,02,47,3.70
2019,10,26,02,48,3.60
2019,10,26,02,49,3.60
2019,10,26,02,50,3.60
2019,10,26,02,51,3.60
2019,10,26,02,52,3.50
2019,10,26,02,53,3.50
2019,10,26,02,54,3.50
2019,10,26,02,55,3.50
2019,10,26,02,56,3.40
2019,10,26,02,57,3.40
2019,10,26,02,58,3.40
2019,10,26,02,59,3.40
2019,10,26,03,00,3.40
2019,10,26,03,01,3.40
2019,10,26,03,02,3.40
2019,10,26,03,03,3.40
2019,10,26,03,04,3.40
2019,10,26,03,05,3.40
2019,10,26,03,06,3.40
2019,10,26,03,07,3.30
2019,10,26,03,08,3.30
2019,10,26,03,09,3.30
2019,10,26,03,10,3.30
2019,10,26,03,11,3.30
2019,10,26,03,12,3.30
2019,10,26,03,13,3.30
2019,10,26,03,14,3.20
2019,10,26,03,15,3.20
2019,10,26,03,16,3.20
2019,10,26,03,17,3.20
2019,10,26,03,18,3.20
2019,10,26,03,19,3.20
2019,10,26,03,20,3.20
2019,10,26,03,21,3.20
2019,10,26,03,22,3.10
2019,10,26,03,23,3.10
2019,10,26,03,24,3.10
2019,10,26,03,25,3.10
2019,10,26,03,26,3.10
2019,10,26,03,27,3.10
2019,10,26,03,28,3.00
2019,10,26,03,29,3.00
2019,10,26,03,30,3.00
2019,10,26,03,31,3.00
2019,10,26,03,32,3.00
2019,10,26,03,33,3.00
2019,10,26,03,34,3.00
2019,10,26,03,35,3.00
2019,10,26,03,36,3.00
2019,10,26,03,37,3.00
2019,10,26,03,38,2.90
2019,10,26,03,39,2.90
2019,10,26,03,40,2.90
2019,10,26,03,41,2.90
2019,10,26,03,42,2.90
2019,10,26,03,43,2.90
2019,10,26,03,44,2.80
2019,10,26,03,45,2.80
2019,10,26,03,46,2.80
2019,10,26,03,47,2.80
2019,10,26,03,48,2.80
2019,10,26,03,49,2.80
2019,10,26,03,50,2.80
2019,10,26,03,51,2.80
2019,10,26,03,52,2.80
2019,10,26,03,53,2.80
2019,10,26,03,54,2.80
2019,10,26,03,55,2.80
2019,10,26,03,56,2.80
2019,10,26,03,57,2.80
2019,10,26,03,58,2.80
2019,10,26,03,59,2.80
2019,10,26,04,00,2.80
2019,10,26,04,01,2.80
2019,10,26,04,02,2.80
2019,10,26,04,03,2.70
2019,10,26,04,04,2.70
2019,10,26,04,05,2.70
2019,10,26,04,06,2.60
2019,10,26,04,07,2.60
2019,10,26,04,08,2.60
2019,10,26,04,09,2.60
2019,10,26,04,10,2.60
2019,10,26,04,11,2.60
2019,10,26,04,12,2.50
2019,10,26,04,13,2.50
2019,10,26,04,14,2.50
2019,10,26,04,15,2.50
2019,10,26,04,16,2.50
2019,10,26,04,17,2.50
2019,10,26,04,18,2.50
2019,10,26,04,19,2.50
2019,10,26,04,20,2.50
2019,10,26,04,21,2.40
2019,10,26,04,22,2.40
2019,10,26,04,23,2.40
2019,10,26,04,24,2.40
2019,10,26,04,25,2.40
2019,10,26,04,26,2.30
2019,10,26,04,27,2.30
2019,10,26,04,28,2.30
2019,10,26,04,29,2.30
2019,10,26,04,30,2.30
2019,10,26,04,31,2.30
2019,10,26,04,32,2.30
2019,10,26,04,33,2.20
2019,10,26,04,34,2.20
2019,10,26,04,35,2.20
2019,10,26,04,36,2.20
2019,10,26,04,37,2.20
2019,10,26,04,38,2.20
2019,10,26,04,39,2.20
2019,10,26,04,40,2.20
2019,10,26,04,41,2.20
2019,10,26,04,42,2.10
2019,10,26,04,43,2.10
2019,10,26,04,44,2.00
2019,10,26,04,45,2.00
2019,10,26,04,46,2.00
2019,10,26,04,47,2.00
2019,10,26,04,48,2.00
2019,10,26,04,49,2.00
2019,10,26,04,50,2.00
2019,10,26,04,51,2.00
2019,10,26,04,52,2.00
2019,10,26,04,53,1.90
2019,10,26,04,54,2.00
2019,10,26,04,55,2.00
2019,10,26,04,56,2.00
2019,10,26,04,57,2.00
2019,10,26,04,58,2.00
2019,10,26,04,59,1.90
2019,10,26,05,00,2.00
2019,10,26,05,01,2.00
2019,10,26,05,02,2.00
2019,10,26,05,03,2.00
2019,10,26,05,04,1.90
2019,10,26,05,05,1.90
2019,10,26,05,06,1.90
2019,10,26,05,07,1.90
2019,10,26,05,08,1.80
2019,10,26,05,09,1.90
2019,10,26,05,10,1.90
2019,10,26,05,11,1.90
2019,10,26,05,12,1.90
2019,10,26,05,13,1.90
2019,10,26,05,14,1.90
2019,10,26,05,15,1.80
2019,10,26,05,16,1.80
2019,10,26,05,17,1.80
2019,10,26,05,18,1.80
2019,10,26,05,19,1.80
2019,10,26,05,20,1.80
2019,10,26,05,21,1.70
2019,10,26,05,22,1.80
2019,10,26,05,23,1.80
2019,10,26,05,24,1.80
2019,10,26,05,25,1.80
2019,10,26,05,26,1.80
2019,10,26,05,27,1.70
2019,10,26,05,28,1.70
2019,10,26,05,29,1.70
2019,10,26,05,30,1.70
2019,10,26,05,31,1.70
2019,10,26,05,32,1.70
2019,10,26,05,33,1.80
2019,10,26,05,34,1.80
2019,10,26,05,35,1.80
2019,10,26,05,36,1.80
2019,10,26,05,37,1.80
2019,10,26,05,38,1.80
2019,10,26,05,39,1.80
2019,10,26,05,40,1.80
2019,10,26,05,41,1.80
2019,10,26,05,42,1.80
2019,10,26,05,43,1.80
2019,10,26,05,44,1.70
2019,10,26,05,45,1.70
2019,10,26,05,46,1.70
2019,10,26,05,47,1.70
2019,10,26,05,48,1.70
2019,10,26,05,49,1.70
2019,10,26,05,50,1.70
2019,10,26,05,51,1.70
2019,10,26,05,52,1.70
2019,10,26,05,53,1.70
2019,10,26,05,54,1.70
2019,10,26,05,55,1.70
2019,10,26,05,56,1.60
2019,10,26,05,57,1.70
2019,10,26,05,58,1.70
2019,10,26,05,59,1.70
2019,10,26,06,00,1.70
2019,10,26,06,01,1.70
2019,10,26,06,02,1.70
2019,10,26,06,03,1.70
2019,10,26,06,04,1.70
2019,10,26,06,05,1.70
2019,10,26,06,06,1.70
2019,10,26,06,07,1.70
2019,10,26,06,08,1.70
2019,10,26,06,09,1.60
2019,10,26,06,10,1.60
2019,10,26,06,11,1.60
2019,10,26,06,12,1.60
2019,10,26,06,13,1.60
2019,10,26,06,14,1.60
2019,10,26,06,15,1.60
2019,10,26,06,16,1.60
2019,10,26,06,17,1.60
2019,10,26,06,18,1.60
2019,10,26,06,19,1.60
2019,10,26,06,20,1.50
2019,10,26,06,21,1.50
2019,10,26,06,22,1.50
2019,10,26,06,23,1.50
2019,10,26,06,24,1.50
2019,10,26,06,25,1.50
2019,10,26,06,26,1.50
2019,10,26,06,27,1.50
2019,10,26,06,28,1.50
2019,10,26,06,29,1.50
2019,10,26,06,30,1.50
2019,10,26,06,31,1.40
2019,10,26,06,32,1.40
2019,10,26,06,33,1.40
2019,10,26,06,34,1.40
2019,10,26,06,35,1.40
2019,10,26,06,36,1.40
2019,10,26,06,37,1.40
2019,10,26,06,38,1.40
2019,10,26,06,39,1.40
2019,10,26,06,40,1.40
2019,10,26,06,41,1.40
2019,10,26,06,42,1.40
2019,10,26,06,43,1.30
2019,10,26,06,44,1.30
2019,10,26,06,45,1.30
2019,10,26,06,46,1.30
2019,10,26,06,47,1.30
2019,10,26,06,48,1.30
2019,10,26,06,49,1.30
2019,10,26,06,50,1.30
2019,10,26,06,51,1.20
2019,10,26,06,52,1.20
2019,10,26,06,53,1.20
2019,10,26,06,54,1.20
2019,10,26,06,55,1.20
2019,10,26,06,56,1.10
2019,10,26,06,57,1.10
2019,10,26,06,58,1.10
2019,10,26,06,59,1.10
2019,10,26,07,00,1.10
2019,10,26,07,01,1.10
2019,10,26,07,02,1.10
2019,10,26,07,03,1.10
2019,10,26,07,04,1.00
2019,10,26,07,05,1.00
2019,10,26,07,06,1.00
2019,10,26,07,07,1.00
2019,10,26,07,08,1.10
2019,10,26,07,09,1.10
2019,10,26,07,10,1.10
2019,10,26,07,11,1.10
2019,10,26,07,12,1.20
2019,10,26,07,13,1.20
2019,10,26,07,14,1.20
2019,10,26,07,15,1.20
2019,10,26,07,16,1.20
2019,10,26,07,17,1.20
2019,10,26,07,18,1.20
2019,10,26,07,19,1.20
2019,10,26,07,20,1.20
2019,10,26,07,21,1.20
2019,10,26,07,22,1.20
2019,10,26,07,23,1.20
2019,10,26,07,24,1.30
2019,10,26,07,25,1.30
2019,10,26,07,26,1.30
2019,10,26,07,27,1.30
2019,10,26,07,28,1.30
2019,10,26,07,29,1.20
2019,10,26,07,30,1.20
2019,10,26,07,31,1.20
2019,10,26,07,32,1.20
2019,10,26,07,33,1.10
2019,10,26,07,34,1.10
2019,10,26,07,35,1.10
2019,10,26,07,36,1.00
2019,10,26,07,37,1.00
2019,10,26,07,38,1.00
2019,10,26,07,39,1.00
2019,10,26,07,40,1.00
2019,10,26,07,41,0.90
2019,10,26,07,42,0.90
2019,10,26,07,43,0.90
2019,10,26,07,44,1.00
2019,10,26,07,45,1.00
2019,10,26,07,46,1.00
2019,10,26,07,47,1.00
2019,10,26,07,48,1.00
2019,10,26,07,49,1.00
2019,10,26,07,50,1.00
2019,10,26,07,51,1.00
2019,10,26,07,52,1.00
2019,10,26,07,53,1.00
2019,10,26,07,54,1.00
2019,10,26,07,55,1.10
2019,10,26,07,56,1.00
2019,10,26,07,57,1.00
2019,10,26,07,58,1.10
2019,10,26,07,59,1.10
2019,10,26,08,00,1.10
2019,10,26,08,01,1.10
2019,10,26,08,02,1.10
2019,10,26,08,03,1.10
2019,10,26,08,04,1.10
2019,10,26,08,05,1.10
2019,10,26,08,06,1.10
2019,10,26,08,07,1.10
2019,10,26,08,08,1.10
2019,10,26,08,09,1.10
2019,10,26,08,10,1.10
2019,10,26,08,11,1.10
2019,10,26,08,12,1.10
2019,10,26,08,13,1.20
2019,10,26,08,14,1.20
2019,10,26,08,15,1.20
2019,10,26,08,16,1.20
2019,10,26,08,17,1.20
2019,10,26,08,18,1.20
2019,10,26,08,19,1.20
2019,10,26,08,20,1.20
2019,10,26,08,21,1.20
2019,10,26,08,22,1.20
2019,10,26,08,23,1.20
2019,10,26,08,24,1.20
2019,10,26,08,25,1.20
2019,10,26,08,26,1.20
2019,10,26,08,27,1.20
2019,10,26,08,28,1.20
2019,10,26,08,29,1.30
2019,10,26,08,30,1.30
2019,10,26,08,31,1.30
2019,10,26,08,32,1.30
2019,10,26,08,33,1.30
2019,10,26,08,34,1.30
2019,10,26,08,35,1.30
2019,10,26,08,36,1.30
2019,10,26,08,37,1.40
2019,10,26,08,38,1.40
2019,10,26,08,39,1.40
2019,10,26,08,40,1.50
2019,10,26,08,41,1.50
2019,10,26,08,42,1.60
2019,10,26,08,43,1.60
2019,10,26,08,44,1.70
2019,10,26,08,45,1.70
2019,10,26,08,46,1.70
2019,10,26,08,47,1.80
2019,10,26,08,48,1.80
2019,10,26,08,49,1.80
2019,10,26,08,50,1.90
2019,10,26,08,51,1.90
2019,10,26,08,52,2.00
2019,10,26,08,53,2.00
2019,10,26,08,54,2.10
2019,10,26,08,55,2.10
2019,10,26,08,56,2.10
2019,10,26,08,57,2.10
2019,10,26,08,58,2.20
2019,10,26,08,59,2.20
2019,10,26,09,00,2.20
2019,10,26,09,01,2.20
2019,10,26,09,02,2.30
2019,10,26,09,03,2.30
2019,10,26,09,04,2.30
2019,10,26,09,05,2.40
2019,10,26,09,06,2.40
2019,10,26,09,07,2.50
2019,10,26,09,08,2.50
2019,10,26,09,09,2.60
2019,10,26,09,10,2.60
2019,10,26,09,11,2.70
2019,10,26,09,12,2.70
2019,10,26,09,13,2.80
2019,10,26,09,14,2.90
2019,10,26,09,15,2.90
2019,10,26,09,16,3.00
2019,10,26,09,17,3.00
2019,10,26,09,18,3.00
2019,10,26,09,19,3.10
2019,10,26,09,20,3.10
2019,10,26,09,21,3.10
2019,10,26,09,22,3.20
2019,10,26,09,23,3.20
2019,10,26,09,24,3.20
2019,10,26,09,25,3.20
2019,10,26,09,26,3.30
2019,10,26,09,27,3.30
2019,10,26,09,28,3.30
2019,10,26,09,29,3.30
2019,10,26,09,30,3.30
2019,10,26,09,31,3.30
2019,10,26,09,32,3.30
2019,10,26,09,33,3.40
2019,10,26,09,34,3.40
2019,10,26,09,35,3.50
2019,10,26,09,36,3.60
2019,10,26,09,37,3.60
2019,10,26,09,38,3.70
2019,10,26,09,39,3.80
2019,10,26,09,40,3.80
2019,10,26,09,41,3.90
2019,10,26,09,42,3.90
2019,10,26,09,43,4.00
2019,10,26,09,44,4.10
2019,10,26,09,45,4.10
2019,10,26,09,46,4.20
2019,10,26,09,47,4.30
2019,10,26,09,48,4.30
2019,10,26,09,49,4.40
2019,10,26,09,50,4.50
2019,10,26,09,51,4.60
2019,10,26,09,52,4.60
2019,10,26,09,53,4.70
2019,10,26,09,54,4.80
2019,10,26,09,55,4.80
2019,10,26,09,56,4.90
2019,10,26,09,57,4.90
2019,10,26,09,58,5.00
2019,10,26,09,59,5.10
2019,10,26,10,00,5.10
2019,10,26,10,01,5.20
2019,10,26,10,02,5.20
2019,10,26,10,03,5.30
2019,10,26,10,04,5.40
2019,10,26,10,05,5.50
2019,10,26,10,06,5.60
2019,10,26,10,07,5.70
2019,10,26,10,08,5.80
2019,10,26,10,09,5.90
2019,10,26,10,10,6.00
2019,10,26,10,11,6.10
2019,10,26,10,12,6.20
2019,10,26,10,13,6.30
2019,10,26,10,14,6.40
2019,10,26,10,15,6.40
2019,10,26,10,16,6.50
2019,10,26,10,17,6.60
2019,10,26,10,18,6.70
2019,10,26,10,19,6.80
2019,10,26,10,20,6.90
2019,10,26,10,21,7.00
2019,10,26,10,22,7.10
2019,10,26,10,23,7.30
2019,10,26,10,24,7.40
2019,10,26,10,25,7.50
2019,10,26,10,26,7.70
2019,10,26,10,27,7.80
2019,10,26,10,28,7.90
2019,10,26,10,29,7.90
2019,10,26,10,30,8.00
2019,10,26,10,31,8.10
2019,10,26,10,32,8.20
2019,10,26,10,33,8.20
2019,10,26,10,34,8.30
2019,10,26,10,35,8.40
2019,10,26,10,36,8.40
2019,10,26,10,37,8.50
2019,10,26,10,38,8.60
2019,10,26,10,39,8.60
2019,10,26,10,40,8.70
2019,10,26,10,41,8.70
2019,10,26,10,42,8.80
2019,10,26,10,43,8.80
2019,10,26,10,44,8.80
2019,10,26,10,45,8.80
2019,10,26,10,46,8.80
2019,10,26,10,47,8.80
2019,10,26,10,48,8.80
2019,10,26,10,49,8.90
2019,10,26,10,50,8.90
2019,10,26,10,51,8.90
2019,10,26,10,52,8.90
2019,10,26,10,53,8.90
2019,10,26,10,54,8.90
2019,10,26,10,55,8.90
2019,10,26,10,56,8.90
2019,10,26,10,57,8.90
2019,10,26,10,58,8.90
2019,10,26,10,59,8.90
2019,10,26,11,00,8.90
2019,10,26,11,01,9.00
2019,10,26,11,02,9.00
2019,10,26,11,03,9.10
2019,10,26,11,04,9.20
2019,10,26,11,05,9.20
2019,10,26,11,06,9.30
2019,10,26,11,07,9.40
2019,10,26,11,08,9.50
2019,10,26,11,09,9.60
2019,10,26,11,10,9.60
2019,10,26,11,11,9.70
2019,10,26,11,12,9.70
2019,10,26,11,13,9.80
2019,10,26,11,14,9.80
2019,10,26,11,15,9.90
2019,10,26,11,16,9.90
2019,10,26,11,17,10.00
2019,10,26,11,18,10.00
2019,10,26,11,19,10.00
2019,10,26,11,20,10.00
2019,10,26,11,21,10.10
2019,10,26,11,22,10.10
2019,10,26,11,23,10.10
2019,10,26,11,24,10.20
2019,10,26,11,25,10.20
2019,10,26,11,26,10.30
2019,10,26,11,27,10.30
2019,10,26,11,28,10.30
2019,10,26,11,29,10.30
2019,10,26,11,30,10.30
2019,10,26,11,31,10.40
2019,10,26,11,32,10.40
2019,10,26,11,33,10.40
2019,10,26,11,34,10.40
2019,10,26,11,35,10.50
2019,10,26,11,36,10.50
2019,10,26,11,37,10.50
2019,10,26,11,38,10.60
2019,10,26,11,39,10.60
2019,10,26,11,40,10.60
2019,10,26,11,41,10.70
2019,10,26,11,42,10.70
2019,10,26,11,43,10.70
2019,10,26,11,44,10.70
2019,10,26,11,45,10.80
2019,10,26,11,46,10.80
2019,10,26,11,47,10.80
2019,10,26,11,48,10.90
2019,10,26,11,49,10.90
2019,10,26,11,50,10.90
2019,10,26,11,51,11.00
2019,10,26,11,52,11.00
2019,10,26,11,53,11.10
2019,10,26,11,54,11.10
2019,10,26,11,55,11.20
2019,10,26,11,56,11.20
2019,10,26,11,57,11.20
2019,10,26,11,58,11.20
2019,10,26,11,59,11.30
2019,10,26,12,00,11.30
2019,10,26,12,01,11.40
2019,10,26,12,02,11.40
2019,10,26,12,03,11.40
2019,10,26,12,04,11.40
2019,10,26,12,05,11.40
2019,10,26,12,06,11.40
2019,10,26,12,07,11.40
2019,10,26,12,08,11.40
2019,10,26,12,09,11.40
2019,10,26,12,10,11.30
2019,10,26,12,11,11.30
2019,10,26,12,12,11.30
2019,10,26,12,13,11.30
2019,10,26,12,14,11.30
2019,10,26,12,15,11.40
2019,10,26,12,16,11.40
2019,10,26,12,17,11.50
2019,10,26,12,18,11.50
2019,10,26,12,19,11.50
2019,10,26,12,20,11.60
2019,10,26,12,21,11.60
2019,10,26,12,22,11.60
2019,10,26,12,23,11.60
2019,10,26,12,24,11.60
2019,10,26,12,25,11.60
2019,10,26,12,26,11.60
2019,10,26,12,27,11.60
2019,10,26,12,28,11.60
2019,10,26,12,29,11.60
2019,10,26,12,30,11.60
2019,10,26,12,31,11.60
2019,10,26,12,32,11.60
2019,10,26,12,33,11.60
2019,10,26,12,34,11.60
2019,10,26,12,35,11.60
2019,10,26,12,36,11.60
2019,10,26,12,37,11.60
2019,10,26,12,38,11.60
2019,10,26,12,39,11.60
2019,10,26,12,40,11.60
2019,10,26,12,41,11.70
2019,10,26,12,42,11.70
2019,10,26,12,43,11.70
2019,10,26,12,44,11.80
2019,10,26,12,45,11.80
2019,10,26,12,46,11.80
2019,10,26,12,47,11.90
2019,10,26,12,48,11.90
2019,10,26,12,49,11.90
2019,10,26,12,50,11.90
2019,10,26,12,51,11.90
2019,10,26,12,52,11.90
2019,10,26,12,53,11.90
2019,10,26,12,54,12.00
2019,10,26,12,55,12.00
2019,10,26,12,56,12.10
2019,10,26,12,57,12.10
2019,10,26,12,58,12.10
2019,10,26,12,59,12.00
2019,10,26,13,00,12.00
2019,10,26,13,01,12.00
2019,10,26,13,02,11.90
2019,10,26,13,03,11.90
2019,10,26,13,04,11.90
2019,10,26,13,05,11.90
2019,10,26,13,06,11.90
2019,10,26,13,07,12.00
2019,10,26,13,08,12.00
2019,10,26,13,09,12.00
2019,10,26,13,10,12.10
2019,10,26,13,11,12.10
2019,10,26,13,12,12.10
2019,10,26,13,13,12.10
2019,10,26,13,14,12.10
2019,10,26,13,15,12.10
2019,10,26,13,16,12.10
2019,10,26,13,17,12.00
2019,10,26,13,18,12.00
2019,10,26,13,19,12.10
2019,10,26,13,20,12.10
2019,10,26,13,21,12.20
2019,10,26,13,22,12.20
2019,10,26,13,23,12.30
2019,10,26,13,24,12.20
2019,10,26,13,25,12.20
2019,10,26,13,26,12.20
2019,10,26,13,27,12.30
2019,10,26,13,28,12.30
2019,10,26,13,29,12.30
2019,10,26,13,30,12.30
2019,10,26,13,31,12.30
2019,10,26,13,32,12.30
2019,10,26,13,33,12.30
2019,10,26,13,34,12.30
2019,10,26,13,35,12.30
2019,10,26,13,36,12.30
2019,10,26,13,37,12.30
2019,10,26,13,38,12.30
2019,10,26,13,39,12.30
2019,10,26,13,40,12.30
2019,10,26,13,41,12.30
2019,10,26,13,42,12.40
2019,10,26,13,43,12.40
2019,10,26,13,44,12.50
2019,10,26,13,45,12.50
2019,10,26,13,46,12.60
2019,10,26,13,47,12.60
2019,10,26,13,48,12.60
2019,10,26,13,49,12.60
2019,10,26,13,50,12.60
2019,10,26,13,51,12.60
2019,10,26,13,52,12.50
2019,10,26,13,53,12.40
2019,10,26,13,54,12.40
2019,10,26,13,55,12.30
2019,10,26,13,56,12.30
2019,10,26,13,57,12.30
2019,10,26,13,58,12.20
2019,10,26,13,59,12.20
2019,10,26,14,00,12.20
2019,10,26,14,01,12.20
2019,10,26,14,02,12.20
2019,10,26,14,03,12.20
2019,10,26,14,04,12.20
2019,10,26,14,05,12.20
2019,10,26,14,06,12.20
2019,10,26,14,07,12.20
2019,10,26,14,08,12.30
2019,10,26,14,09,12.30
2019,10,26,14,10,12.30
2019,10,26,14,11,12.30
2019,10,26,14,12,12.20
2019,10,26,14,13,12.20
2019,10,26,14,14,12.20
2019,10,26,14,15,12.20
2019,10,26,14,16,12.20
2019,10,26,14,17,12.20
2019,10,26,14,18,12.20
2019,10,26,14,19,12.10
2019,10,26,14,20,12.10
2019,10,26,14,21,12.10
2019,10,26,14,22,12.10
2019,10,26,14,23,12.10
2019,10,26,14,24,12.00
2019,10,26,14,25,12.00
2019,10,26,14,26,12.00
2019,10,26,14,27,12.00
2019,10,26,14,28,11.90
2019,10,26,14,29,12.00
2019,10,26,14,30,12.00
2019,10,26,14,31,12.00
2019,10,26,14,32,11.90
2019,10,26,14,33,11.80
2019,10,26,14,34,11.80
2019,10,26,14,35,11.70
2019,10,26,14,36,11.60
2019,10,26,14,37,11.50
2019,10,26,14,38,11.50
2019,10,26,14,39,11.40
2019,10,26,14,40,11.30
2019,10,26,14,41,11.30
2019,10,26,14,42,11.20
2019,10,26,14,43,11.20
2019,10,26,14,44,11.10
2019,10,26,14,45,11.10
2019,10,26,14,46,11.00
2019,10,26,14,47,11.00
2019,10,26,14,48,10.90
2019,10,26,14,49,10.90
2019,10,26,14,50,10.80
2019,10,26,14,51,10.80
2019,10,26,14,52,10.70
2019,10,26,14,53,10.70
2019,10,26,14,54,10.60
2019,10,26,14,55,10.60
2019,10,26,14,56,10.50
2019,10,26,14,57,10.50
2019,10,26,14,58,10.40
2019,10,26,14,59,10.40
2019,10,26,15,00,10.40
2019,10,26,15,01,10.30
2019,10,26,15,02,10.30
2019,10,26,15,03,10.30
2019,10,26,15,04,10.30
2019,10,26,15,05,10.20
2019,10,26,15,06,10.20
2019,10,26,15,07,10.20
2019,10,26,15,08,10.20
2019,10,26,15,09,10.20
2019,10,26,15,10,10.20
2019,10,26,15,11,10.20
2019,10,26,15,12,10.20
2019,10,26,15,13,10.20
2019,10,26,15,14,10.20
2019,10,26,15,15,10.20
2019,10,26,15,16,10.20
2019,10,26,15,17,10.20
2019,10,26,15,18,10.20
2019,10,26,15,19,10.20
2019,10,26,15,20,10.20
2019,10,26,15,21,10.20
2019,10,26,15,22,10.10
2019,10,26,15,23,10.10
2019,10,26,15,24,10.10
2019,10,26,15,25,10.10
2019,10,26,15,26,10.10
2019,10,26,15,27,10.10
2019,10,26,15,28,10.10
2019,10,26,15,29,10.10
2019,10,26,15,30,10.00
2019,10,26,15,31,10.00
2019,10,26,15,32,10.00
2019,10,26,15,33,10.00
2019,10,26,15,34,9.90
2019,10,26,15,35,9.90
2019,10,26,15,36,9.90
2019,10,26,15,37,9.90
2019,10,26,15,38,9.90
2019,10,26,15,39,9.90
2019,10,26,15,40,9.80
2019,10,26,15,41,9.80
2019,10,26,15,42,9.80
2019,10,26,15,43,9.80
2019,10,26,15,44,9.80
2019,10,26,15,45,9.80
2019,10,26,15,46,9.80
2019,10,26,15,47,9.80
2019,10,26,15,48,9.80
2019,10,26,15,49,9.80
2019,10,26,15,50,9.80
2019,10,26,15,51,9.80
2019,10,26,15,52,9.80
2019,10,26,15,53,9.70
2019,10,26,15,54,9.70
2019,10,26,15,55,9.70
2019,10,26,15,56,9.70
2019,10,26,15,57,9.70
2019,10,26,15,58,9.70
2019,10,26,15,59,9.70
2019,10,26,16,00,9.70
2019,10,26,16,01,9.70
2019,10,26,16,02,9.80
2019,10,26,16,03,9.80
2019,10,26,16,04,9.80
2019,10,26,16,05,9.80
2019,10,26,16,06,9.80
2019,10,26,16,07,9.80
2019,10,26,16,08,9.80
2019,10,26,16,09,9.80
2019,10,26,16,10,9.80
2019,10,26,16,11,9.80
2019,10,26,16,12,9.80
2019,10,26,16,13,9.80
2019,10,26,16,14,9.80
2019,10,26,16,15,9.80
2019,10,26,16,16,9.80
2019,10,26,16,17,9.80
2019,10,26,16,18,9.70
2019,10,26,16,19,9.70
2019,10,26,16,20,9.70
2019,10,26,16,21,9.70
2019,10,26,16,22,9.70
2019,10,26,16,23,9.70
2019,10,26,16,24,9.70
2019,10,26,16,25,9.70
2019,10,26,16,26,9.80
2019,10,26,16,27,9.80
2019,10,26,16,28,9.80
2019,10,26,16,29,9.80
2019,10,26,16,30,9.80
2019,10,26,16,31,9.90
2019,10,26,16,32,9.90
2019,10,26,16,33,9.90
2019,10,26,16,34,9.90
2019,10,26,16,35,9.90
2019,10,26,16,36,9.90
2019,10,26,16,37,9.90
2019,10,26,16,38,9.90
2019,10,26,16,39,9.90
2019,10,26,16,40,9.90
2019,10,26,16,41,9.90
2019,10,26,16,42,9.90
2019,10,26,16,43,9.90
2019,10,26,16,44,9.90
2019,10,26,16,45,9.90
2019,10,26,16,46,9.90
2019,10,26,16,47,9.90
2019,10,26,16,48,9.80
2019,10,26,16,49,9.80
2019,10,26,16,50,9.80
2019,10,26,16,51,9.80
2019,10,26,16,52,9.80
2019,10,26,16,53,9.70
2019,10,26,16,54,9.70
2019,10,26,16,55,9.70
2019,10,26,16,56,9.70
2019,10,26,16,57,9.70
2019,10,26,16,58,9.60
2019,10,26,16,59,9.60
2019,10,26,17,00,9.60
2019,10,26,17,01,9.60
2019,10,26,17,02,9.60
2019,10,26,17,03,9.60
2019,10,26,17,04,9.60
2019,10,26,17,05,9.60
2019,10,26,17,06,9.50
2019,10,26,17,07,9.50
2019,10,26,17,08,9.50
2019,10,26,17,09,9.50
2019,10,26,17,10,9.40
2019,10,26,17,11,9.40
2019,10,26,17,12,9.40
2019,10,26,17,13,9.40
2019,10,26,17,14,9.40
2019,10,26,17,15,9.30
2019,10,26,17,16,9.30
2019,10,26,17,17,9.30
2019,10,26,17,18,9.30
2019,10,26,17,19,9.30
2019,10,26,17,20,9.30
2019,10,26,17,21,9.30
2019,10,26,17,22,9.30
2019,10,26,17,23,9.30
2019,10,26,17,24,9.30
2019,10,26,17,25,9.20
2019,10,26,17,26,9.20
2019,10,26,17,27,9.20
2019,10,26,17,28,9.20
2019,10,26,17,29,9.20
2019,10,26,17,30,9.20
2019,10,26,17,31,9.20
2019,10,26,17,32,9.10
2019,10,26,17,33,9.10
2019,10,26,17,34,9.10
2019,10,26,17,35,9.10
2019,10,26,17,36,9.00
2019,10,26,17,37,9.00
2019,10,26,17,38,9.00
2019,10,26,17,39,8.90
2019,10,26,17,40,8.90
2019,10,26,17,41,8.90
2019,10,26,17,42,8.90
2019,10,26,17,43,8.90
2019,10,26,17,44,8.80
2019,10,26,17,45,8.80
2019,10,26,17,46,8.80
2019,10,26,17,47,8.80
2019,10,26,17,48,8.70
2019,10,26,17,49,8.70
2019,10,26,17,50,8.70
2019,10,26,17,51,8.60
2019,10,26,17,52,8.50
2019,10,26,17,53,8.50
2019,10,26,17,54,8.40
2019,10,26,17,55,8.40